This is the latest recevied weather packets stored in our database for station/object HS3UAA-1. If no packets are shown the sender has not sent any weather packets the latest 10 day(s).
| Time | Temp. | Humidity | Pressure | Rain* | Wind** | Luminosity | Snow |
|---|---|---|---|---|---|---|---|
| 1777512182 | 28.33° C | 51% | 999 hPa | - | - | 0 W/m² | - |
| 1777511859 | 28.89° C | 52% | 999 hPa | - | - | 0 W/m² | - |
| 1777511537 | 28.33° C | 53% | 999 hPa | - | - | 0 W/m² | - |
| 1777511215 | 28.89° C | 52% | 999 hPa | - | - | 0 W/m² | - |
| 1777510893 | 28.89° C | 51% | 999 hPa | - | - | 0 W/m² | - |
| 1777510571 | 28.33° C | 50% | 998 hPa | - | - | 0 W/m² | - |
| 1777510249 | 28.89° C | 52% | 998 hPa | - | - | 0 W/m² | - |
| 1777509926 | 28.89° C | 52% | 998 hPa | - | - | 0 W/m² | - |
| 1777509604 | 28.89° C | 53% | 998 hPa | - | - | 0 W/m² | - |
| 1777509281 | 28.89° C | 53% | 998 hPa | - | - | 0 W/m² | - |
| 1777508839 | 28.89° C | 50% | 998 hPa | - | - | 0 W/m² | - |
| 1777508516 | 29.44° C | 49% | 998 hPa | - | - | 0 W/m² | - |
| 1777508194 | 30° C | 49% | 998 hPa | - | - | 0 W/m² | - |
| 1777507872 | 31.11° C | 46% | 998 hPa | - | - | 0 W/m² | - |
| 1777507549 | 32.78° C | 51% | 998 hPa | - | - | 0 W/m² | - |
| 1777507227 | 32.78° C | 51% | 997 hPa | - | - | 0 W/m² | - |
| 1777506904 | 32.78° C | 52% | 997 hPa | - | - | 0 W/m² | - |
| 1777506582 | 32.22° C | 52% | 997 hPa | - | - | 0 W/m² | - |
| 1777506260 | 32.78° C | 51% | 997 hPa | - | - | 0 W/m² | - |
| 1777505938 | 32.22° C | 52% | 997 hPa | - | - | 0 W/m² | - |
| 1777505616 | 32.78° C | 50% | 997 hPa | - | - | 0 W/m² | - |
| 1777505294 | 33.33° C | 49% | 997 hPa | - | - | 0 W/m² | - |
| 1777504972 | 33.33° C | 49% | 997 hPa | - | - | 0 W/m² | - |
| 1777504650 | 33.33° C | 49% | 997 hPa | - | - | 0 W/m² | - |
| 1777504328 | 33.89° C | 48% | 997 hPa | - | - | 0 W/m² | - |
* Rain since midnight (hover to see other rain measurements)
** Current wind speed in m/s (hover to see current wind gust speed)